Weather reports worldwide

Advertisment
Pershore, United Kingdom (3529): temperature & dewpoint: 11.12.2017 23:00:00 - 17.12.2017 23:00:00 (GMT)Pershore, United Kingdom (3529): temperature -20cm & temperature -100cm: 11.12.2017 23:00:00 - 17.12.2017 23:00:00 (GMT)Pershore, United Kingdom (3529): wind speed & gusts: 11.12.2017 23:00:00 - 17.12.2017 23:00:00 (GMT)Pershore, United Kingdom (3529): wind direction: 11.12.2017 23:00:00 - 17.12.2017 23:00:00 (GMT)Pershore, United Kingdom (3529): reduced air pressure: 11.12.2017 23:00:00 - 17.12.2017 23:00:00 (GMT)Pershore, United Kingdom (3529): visibility: 11.12.2017 23:00:00 - 17.12.2017 23:00:00 (GMT)Pershore, United Kingdom (3529): precipitation: 11.12.2017 23:00:00 - 17.12.2017 23:00:00 (GMT)
Date & Time tt [°C] td [°C] tt -20cm [°C] tt -100cm [°C] ff [km/h] ff [kn] fx [km/h] fx [kn] dd ppp [hPa] vv [km] rr [mm]
17.12.2017 23:00:00 - - - - - - - - - - - 0,0
17.12.2017 22:00:00 8,4 5,2 - - 16 9 - - NNW 1022,3 19 0,0
17.12.2017 21:00:00 9,9 8,7 - - 11 6 - - W 1021,1 45 0,0
17.12.2017 20:00:00 10,6 9,1 - - 15 8 - - W 1020,3 45 0,0
17.12.2017 19:00:00 10,0 9,0 - - 11 6 - - WSW 1019,2 40 0,0
17.12.2017 18:00:00 9,3 8,7 - - 13 7 - - WSW 1019,1 40 0,0
17.12.2017 17:00:00 8,8 8,1 - - 13 7 - - SSW 1019,0 27 0,0
17.12.2017 16:00:00 8,9 8,1 - - 18 10 - - SSW 1018,7 22 0,0
17.12.2017 15:00:00 8,4 7,9 - - 21 11 - - SW 1018,8 19 0,0
17.12.2017 14:00:00 7,4 7,0 - - 21 11 - - SSW 1019,4 11 0,0
17.12.2017 13:00:00 6,5 6,2 - - 21 11 - - SSW 1020,8 14 0,2
17.12.2017 12:00:00 5,8 5,5 - - 16 9 - - SSW 1022,1 8 2,0
17.12.2017 11:00:00 5,7 4,9 - - 18 10 - - SSW 1022,8 8 0,2
17.12.2017 10:00:00 5,2 4,6 - - 13 7 - - S 1023,0 8 0,0
17.12.2017 09:00:00 3,6 3,2 3,5 7,7 9 5 - - S 1023,5 16 0,0
17.12.2017 08:00:00 2,9 2,6 - - 13 7 - - SSW 1023,8 22 0,0
17.12.2017 07:00:00 0,1 0,0 - - 5 3 - - SSW 1024,4 13 0,0
17.12.2017 06:00:00 -0,7 -0,8 - - 4 2 - - S 1024,3 8 0,0
17.12.2017 05:00:00 -2,4 -2,6 - - 5 3 - - NW 1025,0 7 0,0
17.12.2017 04:00:00 -2,4 -2,7 - - 4 2 - - SE 1024,6 8 0,0
17.12.2017 03:00:00 -3,2 -3,5 - - 0 0 - - N 1025,1 2,1 0,0
17.12.2017 02:00:00 -3,0 -3,2 - - 0 0 - - N 1024,8 5 0,0
17.12.2017 01:00:00 -2,8 -3,1 - - 2 1 - - SSW 1024,6 0,1 0,0
17.12.2017 00:00:00 -1,6 -1,8 - - 4 2 - - SSE 1024,4 9 -
16.12.2017 23:00:00 -0,5 -0,8 - - 4 2 - - SE 1024,0 10 0,0
16.12.2017 22:00:00 -0,5 -1,1 - - 8 4 - - W 1023,7 8 0,0
16.12.2017 21:00:00 1,2 0,9 - - 4 2 - - NNW 1023,4 30 0,0
16.12.2017 20:00:00 0,2 -0,8 - - 9 5 - - WNW 1022,9 27 0,0
16.12.2017 19:00:00 1,7 0,1 - - 8 4 - - WNW 1022,0 50 0,0
16.12.2017 18:00:00 3,9 2,6 - - 9 5 - - WNW 1021,4 16 0,0
16.12.2017 17:00:00 4,6 2,5 - - 8 4 - - WSW 1020,7 45 0,0
16.12.2017 16:00:00 5,2 2,9 - - 11 6 - - W 1020,0 45 0,0
16.12.2017 15:00:00 5,7 2,8 - - 15 8 - - W 1019,5 40 0,0
16.12.2017 14:00:00 6,6 3,2 - - 21 11 - - W 1019,1 40 0,0
16.12.2017 13:00:00 5,1 2,2 - - 13 7 - - WSW 1019,1 35 0,0
16.12.2017 12:00:00 4,3 2,0 - - 11 6 - - SW 1019,4 27 0,0
16.12.2017 11:00:00 2,1 0,6 - - 8 4 - - SSW 1019,6 30 0,0
16.12.2017 10:00:00 1,1 1,0 - - 8 4 - - SW 1019,4 30 0,0
16.12.2017 09:00:00 -2,2 -2,4 3,7 7,7 5 3 - - W 1019,0 28 0,0
16.12.2017 08:00:00 -4,0 -4,3 - - 5 3 - - SSW 1018,6 23 0,0
16.12.2017 07:00:00 -4,5 -5,1 - - 2 1 - - W 1018,0 19 0,0
16.12.2017 06:00:00 -3,1 -3,5 - - 4 2 - - SSE 1017,5 23 0,0
16.12.2017 05:00:00 -4,0 -4,8 - - 0 0 - - N 1016,6 29 0,0
16.12.2017 04:00:00 -2,0 -2,6 - - 5 3 - - WSW 1015,9 40 0,0
16.12.2017 03:00:00 -0,4 -1,3 - - 5 3 - - W 1015,4 35 0,0
16.12.2017 02:00:00 -1,2 -2,1 - - 5 3 - - W 1014,8 23 0,0
16.12.2017 01:00:00 -2,2 -2,8 - - 5 3 - - WSW 1014,2 23 0,0
16.12.2017 00:00:00 -1,3 -1,9 - - 5 3 - - W 1014,0 23 0,0
15.12.2017 23:00:00 -1,2 -2,4 - - 5 3 - - WNW 1013,4 26 0,0
15.12.2017 22:00:00 1,0 -0,1 - - 16 9 - - NW 1012,7 29 0,0
15.12.2017 21:00:00 0,7 -0,6 - - 11 6 - - NW 1012,2 26 0,0
15.12.2017 20:00:00 2,2 0,4 - - 11 6 - - NW 1011,2 24 0,0
15.12.2017 19:00:00 3,1 0,9 - - 15 8 - - NNW 1010,1 30 0,0
15.12.2017 18:00:00 3,9 1,2 - - 18 10 - - NNW 1009,0 30 0,0
15.12.2017 17:00:00 4,7 2,1 - - 21 11 - - NW 1007,8 40 0,0
15.12.2017 16:00:00 4,7 2,1 - - 21 11 - - NNW 1006,5 45 0,0
15.12.2017 15:00:00 4,8 1,7 - - 22 12 - - NNW 1005,2 45 0,0
15.12.2017 14:00:00 5,1 1,9 - - 21 11 - - NW 1004,2 45 0,0
15.12.2017 13:00:00 5,1 1,4 - - 22 12 - - NNW 1003,1 30 0,0
15.12.2017 12:00:00 4,9 1,7 - - 16 9 - - NNW 1002,2 29 0,0
15.12.2017 11:00:00 4,5 2,2 - - 13 7 - - NW 1001,4 23 0,2
15.12.2017 10:00:00 3,0 1,5 - - 13 7 - - NW 1000,4 30 0,0
15.12.2017 09:00:00 1,5 0,6 4,0 7,9 15 8 - - NNW 999,1 23 0,0
15.12.2017 08:00:00 1,1 0,2 - - 18 10 - - NW 997,5 23 0,0
15.12.2017 07:00:00 1,5 0,8 - - 24 13 - - NNW 995,7 9 0,0
15.12.2017 06:00:00 1,2 0,6 - - 16 9 - - NNW 994,0 15 0,0
15.12.2017 05:00:00 2,3 1,3 - - 22 12 - - NNW 991,6 28 0,8
15.12.2017 04:00:00 4,5 3,1 - - 18 10 - - W 989,9 9 1,0
15.12.2017 03:00:00 3,8 2,0 - - 15 8 - - SW 989,8 45 0,0
15.12.2017 02:00:00 3,8 1,9 - - 13 7 - - SW 989,9 40 0,0
15.12.2017 01:00:00 3,5 1,9 - - 16 9 - - SW 990,0 16 0,2
15.12.2017 00:00:00 2,9 0,8 - - 13 7 - - SW 990,2 45 0,0
14.12.2017 23:00:00 2,0 0,7 - - 11 6 - - SSW 989,9 40 0,0
14.12.2017 22:00:00 1,8 0,7 - - 9 5 - - SSW 990,0 40 0,0
14.12.2017 21:00:00 3,3 1,7 - - 11 6 - - W 989,3 45 0,0
14.12.2017 20:00:00 3,6 2,0 - - 9 5 - - WSW 988,6 20 0,2
14.12.2017 19:00:00 3,8 1,0 - - 11 6 - - SSW 987,8 25 0,0
14.12.2017 18:00:00 3,9 1,1 - - 11 6 - - SSW 987,3 18 0,0
14.12.2017 17:00:00 4,4 1,0 - - 13 7 - - SSW 987,2 20 0,0
14.12.2017 16:00:00 4,6 1,0 - - 13 7 - - SSW 987,8 28 0,0
14.12.2017 15:00:00 6,0 1,1 - - 16 9 - - SSW 988,0 30 0,0
14.12.2017 14:00:00 6,5 1,5 - - 15 8 - - SW 988,6 22 0,0
14.12.2017 13:00:00 6,4 0,9 - - 18 10 - - WSW 989,2 35 0,0
14.12.2017 12:00:00 5,9 1,6 - - 22 12 - - SW 990,2 35 0,0
14.12.2017 11:00:00 5,0 1,1 - - 16 9 - - SW 990,9 30 0,0
14.12.2017 10:00:00 4,6 0,9 - - 18 10 - - SW 991,3 26 0,0
14.12.2017 09:00:00 3,7 0,4 3,9 7,7 21 11 - - WSW 991,4 30 0,0
14.12.2017 08:00:00 3,7 0,2 - - 18 10 - - WSW 991,5 30 0,0
14.12.2017 07:00:00 4,1 -0,1 - - 18 10 - - WSW 991,8 30 0,0
14.12.2017 06:00:00 4,0 0,3 - - 21 11 - - WSW 991,8 30 0,0
14.12.2017 05:00:00 4,8 0,7 - - 22 12 - - WSW 992,0 26 0,0
14.12.2017 04:00:00 4,3 1,1 - - 16 9 - - SW 992,4 22 0,0
14.12.2017 03:00:00 4,5 1,4 - - 15 8 48 26 WSW 992,7 35 0,0
14.12.2017 02:00:00 4,4 1,1 - - 21 11 - - W 992,4 30 0,0
14.12.2017 01:00:00 3,7 0,9 - - 21 11 - - W 992,4 30 0,0
14.12.2017 00:00:00 3,2 0,6 - - 21 11 - - W 992,2 40 0,0
13.12.2017 23:00:00 3,2 -0,6 - - 21 11 - - W 991,7 40 0,0
13.12.2017 22:00:00 3,2 0,6 - - 24 13 - - W 990,8 45 0,0
13.12.2017 21:00:00 3,4 1,6 - - 22 12 46 25 W 989,9 50 0,2
13.12.2017 20:00:00 3,0 1,7 - - 22 12 - - SW 989,0 26 0,8
13.12.2017 19:00:00 4,2 0,8 - - 18 10 - - SSW 989,9 26 0,0
13.12.2017 18:00:00 3,2 0,4 - - 13 7 - - S 991,4 26 0,0
13.12.2017 17:00:00 3,0 0,6 - - 9 5 - - S 992,6 30 0,0
13.12.2017 16:00:00 4,1 1,1 - - 9 5 - - W 992,4 35 0,0
13.12.2017 15:00:00 4,9 1,3 - - 24 13 61 33 W 992,1 40 0,2
13.12.2017 14:00:00 6,4 5,4 - - 18 10 48 26 WSW 991,8 30 1,4
13.12.2017 13:00:00 6,9 6,1 - - 28 15 - - SSW 991,9 25 0,0
13.12.2017 12:00:00 6,1 5,4 - - 16 9 - - S 993,9 26 0,4
13.12.2017 11:00:00 5,8 4,9 - - 18 10 - - SSW 996,1 13 0,0
13.12.2017 10:00:00 5,4 4,6 - - 21 11 - - SSW 997,3 11 0,0
13.12.2017 09:00:00 4,7 3,4 4,0 8,2 15 8 - - SSW 998,5 15 0,0
13.12.2017 08:00:00 4,6 3,4 - - 13 7 - - SSW 999,0 19 0,0
13.12.2017 07:00:00 4,1 2,7 - - 15 8 - - SW 1000,2 18 0,0
13.12.2017 06:00:00 4,5 3,3 - - 13 7 - - SSW 1000,9 18 0,0
13.12.2017 05:00:00 4,0 3,1 - - 11 6 - - SW 1001,7 15 0,0
13.12.2017 04:00:00 3,5 3,3 - - 11 6 - - WSW 1001,4 21 0,0
13.12.2017 03:00:00 3,5 3,3 - - 8 4 - - SW 1001,9 10 0,0
13.12.2017 02:00:00 3,3 3,1 - - 8 4 - - W 1001,7 0,2 0,0
13.12.2017 01:00:00 4,3 3,9 - - 11 6 - - SW 1001,8 1,5 0,4
13.12.2017 00:00:00 5,2 4,4 - - 16 9 - - SSW 1002,0 35 0,0
12.12.2017 23:00:00 5,1 3,7 - - 16 9 - - S 1002,9 50 0,0
12.12.2017 22:00:00 4,6 2,9 - - 15 8 - - S 1003,8 45 0,4
12.12.2017 21:00:00 3,2 1,6 - - 13 7 - - SSE 1005,0 35 2,0
12.12.2017 20:00:00 3,7 1,5 - - 13 7 - - S 1006,2 23 1,8
12.12.2017 19:00:00 2,9 1,1 - - 11 6 - - S 1006,6 23 1,0
12.12.2017 18:00:00 2,5 1,2 - - 8 4 - - S 1007,4 29 0,2
12.12.2017 17:00:00 1,7 0,6 - - 5 3 - - S 1008,2 20 0,2
12.12.2017 16:00:00 2,2 0,8 - - 9 5 - - SSW 1008,4 14 1,6
12.12.2017 15:00:00 2,0 0,6 - - 11 6 - - SSW 1008,6 22 0,0
12.12.2017 14:00:00 1,2 0,2 - - 11 6 - - SSW 1009,1 30 0,0
12.12.2017 13:00:00 -0,4 -0,6 - - 4 2 - - SW 1009,2 10 0,0
12.12.2017 12:00:00 -2,4 -2,6 - - 0 0 - - N 1008,8 5 0,0
12.12.2017 11:00:00 -5,8 -6,3 - - 2 1 - - ENE 1010,1 6 0,0
12.12.2017 10:00:00 -8,6 -9,5 - - 2 1 - - NNW 1009,5 6 0,0
12.12.2017 09:00:00 -10,9 -11,8 4,2 8,7 2 1 - - E 1009,2 0,5 0,0
12.12.2017 08:00:00 -10,9 -12,0 - - 2 1 - - N 1008,5 5 0,0
12.12.2017 07:00:00 -11,3 -12,6 - - 2 1 - - NNE 1008,0 4,4 0,0
12.12.2017 06:00:00 -11,1 -12,2 - - 0 0 - - N 1007,1 0,2 0,0
12.12.2017 05:00:00 -10,9 -12,2 - - 4 2 - - NW 1006,0 4,7 0,0
12.12.2017 04:00:00 -10,8 -11,9 - - 4 2 - - ESE 1005,3 3,2 0,0
12.12.2017 03:00:00 -10,2 -11,4 - - 2 1 - - E 1005,2 5 0,0
12.12.2017 02:00:00 -9,2 -10,1 - - 4 2 - - WSW 1003,6 4,6 0,0
12.12.2017 01:00:00 -8,5 -9,2 - - 2 1 - - SW 1002,5 - 0,0
12.12.2017 00:00:00 -7,0 -7,6 - - 2 1 - - SSE 1001,3 0,1 0,0
11.12.2017 23:00:00 -7,5 -8,2 - - 5 3 - - N 1000,6 7 0,0

tt = temperature
td = dewpoint
tt -20cm = temperature -20cm
tt -100cm = temperature -100cm
ff = wind speed
fx = gusts
dd = wind direction
ppp = reduced air pressure
vv = visibility
rr = precipitation

Next stations